Flag for Netherlands Weather past 2 weeks in Philipsburg, Saint Martin, Netherlands

Now
82 °F

Thundershowers. Overcast.


Feels Like: 91 °F
Forecast: 80 / 87 °F
Wind: 6 mph from Southeast

Location: Juliana Airport - Saint Maarten

Current Time: Sep 2, 2015 at 2:56:58 AM

Latest Report: Sep 2, 2015 at 2:00 AM


Visibility: N/A

Pressure: 30.01 "Hg

Humidity: 84%

Dew point: 77 °F

Location of PhilipsburgLocation

Historic Weather in Philipsburg — Graph

°F

Philipsburg temperature yesterday

Maximum temperature yesterday: 88 °F (at 1:00 PM)
Minimum temperature yesterday: 82 °F (at 1:00 AM)
Average temperature yesterday: 84 °F

Past Weeks' High & Low Weather Summary

 TemperatureHumidityPressure
High90 °F (Aug 25, 3:00 PM)89% (Aug 20, 11:00 PM)30.07 "Hg (Aug 20, 11:00 PM)
Low79 °F (Aug 27, 11:00 PM)55% (Aug 22, 2:00 PM)29.80 "Hg (Aug 27, 4:00 AM)
Average84 °F75%29.97 "Hg
* Reported Aug 18 1:00 AM — Sep 2 1:00 AM, Philipsburg, Weather by CustomWeather, © 2015

Note: Actual official high and low records may vary slightly from our data, if they occured in-between our weather recording intervals... More about our weather records

Advertising

Philipsburg weather history for previous 24 hours

 ConditionsComfort  
Time TempWeatherWind HumidityBarometerVisibility
1:00 AM
Wed, Sep 2
82 °FThundershowers. Overcast.7 mph89%30.01 "HgN/A
12:00 AM82 °FWarm.9 mph84%30.01 "HgN/A
11:00 PM
Tue, Sep 1
82 °FWarm.8 mph89%30.04 "HgN/A
10:00 PM82 °FPassing clouds.7 mph89%30.04 "HgN/A
9:00 PM82 °FPassing clouds.7 mph84%30.04 "HgN/A
8:00 PM82 °FPassing clouds.7 mph89%30.04 "HgN/A
7:00 PM84 °FPassing clouds.8 mph79%30.01 "HgN/A
6:00 PM84 °FScattered clouds.9 mph79%30.01 "HgN/A
5:00 PM86 °FScattered clouds.9 mph75%29.98 "HgN/A
4:00 PM88 °FPassing clouds.8 mph70%29.98 "HgN/A
3:00 PM88 °FScattered clouds.9 mph70%29.98 "HgN/A
2:00 PM88 °FScattered clouds.8 mph70%29.98 "HgN/A
1:00 PM88 °FWarm.10 mph75%30.01 "HgN/A
12:00 PM86 °FWarm.10 mph75%30.04 "HgN/A
11:00 AM86 °FScattered clouds.10 mph75%30.04 "HgN/A
10:00 AM86 °FWarm.10 mph75%30.04 "HgN/A
9:00 AM86 °FPassing clouds.8 mph75%30.04 "HgN/A
8:00 AM82 °FScattered showers. Broken clouds.9 mph84%30.04 "HgN/A
7:00 AM82 °FWarm.N/A84%30.01 "HgN/A
5:00 AM82 °FPassing clouds.6 mph79%29.98 "HgN/A
4:00 AM82 °FPassing clouds.7 mph79%29.98 "HgN/A
3:00 AM82 °FPassing clouds.7 mph79%29.98 "HgN/A
2:00 AM82 °FPassing clouds.8 mph79%30.01 "HgN/A
Weather by CustomWeather, © 2015

See weather overviewHow to use our weather pages